Flag Weather past 2 weeks in Norfolk, Virginia, U.S.A.

Now
77 °F

Passing clouds.


Feels Like: 79 °F
Forecast: 64 / 73 °F
Wind: 14 mph from Southwest

Location: Norfolk Naval Air Station

Current Time: Nov 24, 2014 at 1:16:11 PM

Latest Report: Nov 24, 2014 at 12:59 PM


Visibility: 10 mi

Pressure: 29.78 "Hg

Humidity: 54%

Dew point: 59 °F

Location of NorfolkLocation

Historic Weather in Norfolk — Graph

°F

Norfolk temperature yesterday

Maximum temperature yesterday: 67 °F (at 11:59 PM)
Minimum temperature yesterday: 38 °F (at 4:59 AM)
Average temperature yesterday: 54 °F

Past Weeks' High & Low Weather Summary

 TemperatureHumidityPressure
High76 °F (Nov 17, 2:59 PM)93% (Nov 12, 1:59 AM)30.58 "Hg (Nov 12, 1:59 AM)
Low29 °F (Nov 22, 4:59 AM)24% (Nov 19, 2:59 PM)29.56 "Hg (Nov 17, 5:59 PM)
Average50 °F61%30.14 "Hg
* Reported Nov 9 11:59 AM — Nov 24 11:59 AM, Norfolk, Weather by CustomWeather, © 2014

Note: Actual official high and low records may vary slightly from our data, if they occured in-between our weather recording intervals... More about our weather records

Advertising

Norfolk weather history for previous 24 hours

 ConditionsComfort  
Time TempWeatherWind HumidityBarometerVisibility
11:59 AM
Nov 24
75 °FPassing clouds.16 mph58%29.80 "Hg10 mi
10:59 AM73 °FScattered clouds.22 mph66%29.82 "Hg10 mi
9:59 AM72 °FScattered clouds.16 mph71%29.83 "Hg10 mi
8:59 AM70 °FScattered clouds.20 mph76%29.82 "Hg10 mi
7:59 AM70 °FScattered clouds.15 mph79%29.80 "Hg10 mi
6:59 AM70 °FScattered clouds.16 mph81%29.78 "Hg10 mi
5:59 AM70 °FPassing clouds.15 mph84%29.78 "Hg10 mi
4:59 AM70 °FMostly cloudy.13 mph84%29.78 "Hg10 mi
3:59 AM70 °FOvercast.13 mph84%29.79 "Hg10 mi
2:59 AM69 °FFog.12 mph84%29.80 "Hg6 mi
1:59 AM68 °FRain. Mostly cloudy.12 mph84%29.79 "Hg2 mi
12:59 AM68 °FLight rain. Mostly cloudy.14 mph84%29.80 "Hg6 mi
11:59 PM
Nov 23
67 °FLight rain. Mostly cloudy.14 mph85%29.85 "Hg4 mi
10:59 PM66 °FLight rain. Mostly cloudy.14 mph81%29.89 "Hg8 mi
9:59 PM65 °FMostly cloudy.12 mph76%29.94 "Hg10 mi
8:59 PM64 °FOvercast.10 mph78%29.98 "Hg10 mi
7:59 PM62 °FPassing clouds.10 mph80%30.01 "Hg10 mi
6:59 PM62 °FMostly cloudy.8 mph80%30.05 "Hg10 mi
5:59 PM61 °FLight rain. Mostly cloudy.7 mph78%30.08 "Hg10 mi
4:59 PM63 °FMostly cloudy.6 mph68%30.10 "Hg10 mi
3:59 PM59 °FMostly cloudy.No wind69%30.12 "Hg10 mi
2:59 PM58 °FCloudy.6 mph70%30.14 "Hg10 mi
1:59 PM63 °FMostly cloudy.3 mph56%30.14 "Hg10 mi
Weather by CustomWeather, © 2014

See weather overviewHow to use our weather pages